ATLAS 5 CENTAUR R/B, 43227

Orbit data source: Space-Track

ATLAS 5 CENTAUR R/B, 43227 is space debris in HEO originally from a launch on Thu, 01 Mar 2018 UTC launched from the Air Force Eastern Test Range (AFETR). Debris objects in space refer to the collection of defunct objects orbiting the Earth. Examples of debris include non-operational satellites, rocket bodies, and fragments generated from explosions, collisions, or faulty payload assembly.

Loading next visibility...
ATLAS 5 CENTAUR R/B details
Identifier
43227, 2018-022B
Orbit
HEO
Last TLE update2 months ago
Origin
Flag of USULA (US)
ManufacturerULA Decatur
MissionSpacecraft
Bus & MotorCENTAUR SEC, RL10C-1
Mass~2,020 kg wet, 2,020 kg dry
Launch date (UTC)
2018-03-01 (7 years ago)
Launch vehicleUnknown
Launch site
Air Force Eastern Test Range (AFETR)
Object type
Payload
Rocket body
Debris
Shape & HBRCyl + 1 Nozzle, 11.7 m
Radar Cross Section32.260 m², Large (>1 m²)

Expand to show TLE details & history

TLE from 2 months ago
0 ATLAS 5 CENTAUR R/B
1 43227U 18022B   24270.44204432 -.00000172  00000-0  00000+0 0  9999
2 43227   9.3663  72.7605 4947038 321.6888  11.7568  1.88583547 45270
Epoch: 2024-09-26T10:36Z
Definitive object data (Epoch: 2024-09-26T10:36:32.629Z)
Latitude0.00001°
Longitude-92.00949°
Altitude8,679.35 km
Speed6.208 km/s
True Right ascension04h 51m 24s
True Declination0° 00' 00"
Sunlit
Object was in daylight at TLE epoch
Visualization TLE readout
Latitude5.26701°
Longitude47.33006°
Altitude34,474.263 km
Speed2.261 km/s
Apparent Right ascension14h 36m 15s
Apparent Declination0° 28' 01"
Sunlit
Object is in daylight
Visualization observer readout
Local Sidereal Time09:02:26
Azimuth94.57° ESE
Elevation4.716°
Doppler factor1
Orbital elements
Apogee altitude34,989.234 km
Perigee altitude7,606.423 km
Semi-major axis27,675.966 km
Eccentricity0.4947038
Inclination9.3663°
RAAN72.7605°
Arg. of periapsis321.6888°
True anomaly38.0782°
Mean anomaly11.7568°
Eccentric anomaly22.69097°
Mean motion0.4714 °/min
BSTARUnknown
Orbital period763.68 mins
Loading maneuver chart data...
Loading historical data...
Loading historical data...
Loading historical data...
Loading historical data...
Loading historical data...
Loading historical data...
Loading historical data...
Other satellites on launch #22 in the year 2018 (2018-03-01 UTC)

ATLAS 5 CENTAUR R/B Visibility forecast

Observer location: undefined°, undefined

Span
Click to sort rows by Start time (UTC) header in descending order
Start Az.
Max El. time (UTC)
Max El. Az.
Max El.
End time (UTC)
End Az.
243 mins2024-12-03 07:12:44.758Z222.837° SW2024-12-03 07:53:44.758Z155.763° SSE29.836°2024-12-03 11:15:44.758Z105.763° ESE
|